This demonstration page uses our WeatherBlox Daily Observations layout. Learn more.

Left ArrowRight Arrow

Hourly Observations for January 9, 2015

Temp ( °F °C ) Dew Point ( °F °C ) Humidity (%) Winds ( mph kmh ) Pressure ( in mb ) Visibility ( mi km ) Precip ( " mm )
12:15 am 00:15 Partly Cloudy 21 -6 1 -17 42 42 WSW 24 39 30.03 1017 7 11.26538 N/A
12:35 am 00:35 Mostly Cloudy 21 -6 3 -16 45 45 WSW 23 37 30.06 1018 7 11.26538 N/A
12:56 am 00:56 Cloudy 21 -6 5 -15 49 49 WSW 23 37 30.06 1018 5 8.0467 N/A
1:15 am 01:15 Partly Cloudy 21 -6 7 -14 54 54 WSW 21 33 30.06 1018 7 11.26538 N/A
1:35 am 01:35 Mostly Cloudy 21 -6 7 -14 54 54 WSW 22 35 30.06 1018 10 16.0934 N/A
1:55 am 01:55 Mostly Cloudy 21 -6 5 -15 49 49 WSW 23 37 30.06 1018 10 16.0934 N/A
2:15 am 02:15 Mostly Cloudy 21 -6 7 -14 54 54 WSW 26 43 30.06 1018 7 11.26538 N/A
2:36 am 02:36 Cloudy 21 -6 9 -13 58 58 W 29 46 30.09 1019 2 3.21868 N/A
2:55 am 02:55 Mostly Cloudy 19 -7 5 -15 53 53 WNW 24 39 30.12 1020 3 4.82802 N/A
3:15 am 03:15 Mostly Cloudy 18 -8 1 -17 49 49 W 26 43 30.15 1021 5 8.0467 N/A
3:35 am 03:35 Partly Cloudy 16 -9 0 -18 48 48 WNW 26 43 30.15 1021 10 16.0934 N/A
3:55 am 03:55 Clear 14 -10 0 -18 52 52 WNW 23 37 30.18 1022 10 16.0934 N/A
4:16 am 04:16 Partly Cloudy 14 -10 0 -18 52 52 W 17 28 30.21 1023 10 16.0934 N/A
4:35 am 04:35 Partly Cloudy 12 -11 -2 -19 52 52 W 22 35 30.21 1023 10 16.0934 N/A
4:55 am 04:55 Partly Cloudy 12 -11 -2 -19 52 52 WNW 18 30 30.21 1023 10 16.0934 N/A
5:15 am 05:15 Clear 10 -12 -2 -19 56 56 WNW 16 26 30.24 1024 10 16.0934 N/A
5:35 am 05:35 Clear 10 -12 -4 -20 52 52 WNW 17 28 30.27 1025 10 16.0934 N/A
5:56 am 05:56 Clear 10 -12 -4 -20 52 52 WNW 16 26 30.27 1025 10 16.0934 N/A
6:15 am 06:15 Clear 10 -12 -4 -20 52 52 W 15 24 30.3 1026 10 16.0934 N/A
6:35 am 06:35 Partly Cloudy 10 -12 -4 -20 52 52 W 18 30 30.3 1026 10 16.0934 N/A
6:56 am 06:56 Mostly Cloudy 9 -13 -4 -20 56 56 W 16 26 30.3 1026 10 16.0934 N/A
7:15 am 07:15 Mostly Cloudy 9 -13 -4 -20 56 56 W 17 28 30.3 1026 10 16.0934 N/A
7:36 am 07:36 Partly Cloudy 9 -13 -4 -20 56 56 W 17 28 30.3 1026 10 16.0934 N/A
7:55 am 07:55 Partly Cloudy 9 -13 -4 -20 56 56 W 16 26 30.33 1027 10 16.0934 N/A
8:15 am 08:15 Sunny 9 -13 -4 -20 56 56 W 17 28 30.33 1027 10 16.0934 N/A
8:35 am 08:35 Partly Cloudy 9 -13 -4 -20 56 56 WNW 17 28 30.33 1027 10 16.0934 N/A
8:55 am 08:55 Mostly Cloudy 9 -13 -4 -20 56 56 W 17 28 30.36 1028 7 11.26538 N/A
9:16 am 09:16 Mostly Cloudy 9 -13 -4 -20 56 56 W 20 31 30.36 1028 10 16.0934 N/A
9:35 am 09:35 Partly Cloudy 10 -12 -8 -22 44 44 WNW 23 37 30.39 1029 7 11.26538 N/A
9:55 am 09:55 Sunny 9 -13 -9 -23 43 43 WNW 28 44 30.39 1029 10 16.0934 N/A
10:15 am 10:15 Sunny 10 -12 -9 -23 40 40 W 13 20 30.39 1029 10 16.0934 N/A
10:35 am 10:35 Sunny 10 -12 -8 -22 44 44 WNW 21 33 30.39 1029 10 16.0934 N/A
10:56 am 10:56 Partly Cloudy 10 -12 -8 -22 44 44 W 22 35 30.39 1029 10 16.0934 N/A
11:15 am 11:15 Sunny 10 -12 -8 -22 44 44 W 24 39 30.39 1029 10 16.0934 N/A
11:35 am 11:35 Sunny 10 -12 -8 -22 44 44 W 21 33 30.42 1030 10 16.0934 N/A
11:55 am 11:55 Partly Cloudy 10 -12 -6 -21 47 47 WNW 18 30 30.42 1030 10 16.0934 N/A
12:15 pm 12:15 Partly Cloudy 10 -12 -8 -22 44 44 W 22 35 30.42 1030 10 16.0934 N/A
12:36 pm 12:36 Sunny 10 -12 -8 -22 44 44 W 21 33 30.39 1029 10 16.0934 N/A
12:55 pm 12:55 Sunny 10 -12 -9 -23 40 40 W 20 31 30.39 1029 10 16.0934 N/A
1:15 pm 13:15 Sunny 10 -12 -8 -22 44 44 W 21 33 30.39 1029 10 16.0934 N/A
1:35 pm 13:35 Sunny 10 -12 -9 -23 40 40 W 23 37 30.39 1029 10 16.0934 N/A
1:55 pm 13:55 Sunny 10 -12 -9 -23 40 40 W 22 35 30.42 1030 10 16.0934 N/A
2:15 pm 14:15 Sunny 10 -12 -9 -23 40 40 W 17 28 30.39 1029 10 16.0934 N/A
2:35 pm 14:35 Sunny 10 -12 -11 -24 36 36 W 22 35 30.42 1030 10 16.0934 N/A
2:56 pm 14:56 Sunny 10 -12 -13 -25 33 33 W 20 31 30.42 1030 10 16.0934 N/A
3:15 pm 15:15 Sunny 10 -12 -11 -24 36 36 W 17 28 30.42 1030 10 16.0934 N/A
3:36 pm 15:36 Sunny 10 -12 -11 -24 36 36 W 21 33 30.42 1030 10 16.0934 N/A
3:55 pm 15:55 Sunny 10 -12 -11 -24 36 36 W 21 33 30.42 1030 10 16.0934 N/A
4:15 pm 16:15 Sunny 10 -12 -11 -24 36 36 W 21 33 30.42 1030 10 16.0934 N/A
4:35 pm 16:35 Sunny 9 -13 -9 -23 43 43 W 18 30 30.45 1031 10 16.0934 N/A
4:55 pm 16:55 Sunny 9 -13 -8 -22 47 47 W 17 28 30.45 1031 10 16.0934 N/A
5:15 pm 17:15 Partly Cloudy 9 -13 -9 -23 43 43 W 16 26 30.45 1031 10 16.0934 N/A
5:35 pm 17:35 Sunny 9 -13 -11 -24 39 39 W 15 24 30.45 1031 10 16.0934 N/A
5:56 pm 17:56 Clear 7 -14 -11 -24 43 43 W 16 26 30.48 1032 10 16.0934 N/A
6:15 pm 18:15 Clear 9 -13 -9 -23 43 43 W 17 28 30.48 1032 10 16.0934 N/A
6:35 pm 18:35 Clear 7 -14 -9 -23 47 47 W 13 20 30.48 1032 10 16.0934 N/A
6:55 pm 18:55 Clear 7 -14 -8 -22 51 51 W 15 24 30.48 1032 10 16.0934 N/A
7:15 pm 19:15 Clear 7 -14 -8 -22 51 51 W 13 20 30.5 1033 10 16.0934 N/A
7:36 pm 19:36 Clear 7 -14 -8 -22 51 51 W 15 24 30.5 1033 10 16.0934 N/A
7:55 pm 19:55 Clear 7 -14 -8 -22 51 51 W 13 20 30.5 1033 10 16.0934 N/A
8:15 pm 20:15 Clear 7 -14 -8 -22 51 51 W 14 22 30.53 1034 10 16.0934 N/A
8:35 pm 20:35 Clear 5 -15 -8 -22 55 55 W 15 24 30.53 1034 10 16.0934 N/A
8:55 pm 20:55 Clear 5 -15 -9 -23 51 51 W 15 24 30.53 1034 10 16.0934 N/A
9:16 pm 21:16 Clear 5 -15 -9 -23 51 51 W 17 28 30.53 1034 10 16.0934 N/A
9:35 pm 21:35 Clear 5 -15 -11 -24 46 46 W 14 22 30.53 1034 10 16.0934 N/A
9:55 pm 21:55 Clear 5 -15 -11 -24 46 46 W 12 19 30.56 1035 10 16.0934 N/A
10:15 pm 22:15 Clear 3 -16 -11 -24 50 50 W 13 20 30.56 1035 10 16.0934 N/A
10:35 pm 22:35 Clear 5 -15 -11 -24 46 46 W 14 22 30.56 1035 10 16.0934 N/A
10:56 pm 22:56 Clear 3 -16 -11 -24 50 50 W 10 17 30.56 1035 10 16.0934 N/A
11:15 pm 23:15 Clear 3 -16 -11 -24 50 50 W 13 20 30.56 1035 10 16.0934 N/A
11:35 pm 23:35 Clear 3 -16 -11 -24 50 50 W 12 19 30.56 1035 10 16.0934 N/A
11:55 pm 23:55 Clear 3 -16 -11 -24 50 50 W 9 15 30.56 1035 10 16.0934 N/A

Powered by AerisWeather